Printer-friendly version

IAU Minor Planet Center

Minor Planet Center

MPEC 2005-N13 : COMET C/2005 K1 (SKIFF)

The following Minor Planet Electronic Circular may be linked-to from your own Web pages, but must not otherwise be redistributed electronically.


Read MPEC 2005-N12 Read MPEC 2005-N14


M.P.E.C. 2005-N13                                Issued 2005 July 4, 00:08 UT

     The Minor Planet Electronic Circulars contain information on unusual
         minor planets and routine data on comets.  They are published
   on behalf of Commission 20 of the International Astronomical Union by the
          Minor Planet Center, Smithsonian Astrophysical Observatory,
                          Cambridge, MA 02138, U.S.A.

                  Supported in part by the Brinson Foundation
             Prepared using the Tamkin Foundation Computer Network

                              MPC@CFA.HARVARD.EDU
          URL http://cfa-www.harvard.edu/iau/mpc.html  ISSN 1523-6714

                            COMET C/2005 K1 (SKIFF)

Observations:
    CK05K010   2005 06 04.72569 17 24 33.85 +64 12 54.0          16.9 T EN013372
    CK05K010   2005 06 05.65278 17 23 04.87 +64 06 57.4          16.8 T EN013372
    CK05K010  C2005 06 27.89716 16 51 01.00 +60 16 50.9          17.1 N EN013157
    CK05K010  C2005 06 27.89995 16 51 00.79 +60 16 48.6          16.6 N EN013157
    CK05K010  C2005 06 27.90274 16 51 00.58 +60 16 46.1          17.0 N EN013157
    CK05K010  C2005 06 27.90553 16 51 00.38 +60 16 43.6          17.0 N EN013157
    CK05K010   2005 06 28.62847 16 50 08.77 +60 06 34.3          16.6 T EN013372
    CK05K010   2005 06 28.64236 16 50 07.71 +60 06 22.0                 EN013372
    CK05K010  C2005 06 28.88219 16 49 51.03 +60 02 57.7                 EN013048
    CK05K010  C2005 06 28.88522 16 49 50.80 +60 02 54.1                 EN013048
    CK05K010  C2005 06 28.88748 16 49 50.68 +60 02 51.6                 EN013048
    CK05K010  C2005 06 28.88898 16 49 50.55 +60 02 50.4                 EN013048
    CK05K010  C2005 06 28.88973 16 49 50.45 +60 02 49.5                 EN013048
    CK05K010  C2005 06 28.95852 16 49 45.70 +60 01 51.9          17.1 N EN013J97
    CK05K010  C2005 06 30.25347 16 48 16.60 +59 43 07.2          15.5 T EN013673
    CK05K010  C2005 06 30.26053 16 48 16.10 +59 43 00.8                 EN013673
    CK05K010  C2005 06 30.26609 16 48 15.72 +59 42 56.0                 EN013673
    CK05K010  C2005 06 30.27176 16 48 15.37 +59 42 51.1                 EN013673
    CK05K010  C2005 07 02.18102 16 46 09.33 +59 14 17.8          15.0 T EN013673
    CK05K010  C2005 07 02.18750 16 46 08.89 +59 14 12.3                 EN013673
    CK05K010  C2005 07 02.19167 16 46 08.61 +59 14 08.3                 EN013673
    CK05K010  C2005 07 02.19664 16 46 08.31 +59 14 03.7                 EN013673
    CK05K010  C2005 07 02.91254 16 45 22.49 +59 03 05.5          17.1 N EN013J78
    CK05K010  C2005 07 02.91445 16 45 22.42 +59 03 03.7          17.1 N EN013J78
    CK05K010  C2005 07 02.91646 16 45 22.36 +59 03 01.7          17.1 N EN013J78
    CK05K010  C2005 07 02.92212 16 45 21.89 +59 02 57.8          16.9 N EN013939
    CK05K010  C2005 07 02.92675 16 45 21.50 +59 02 53.5          16.9 N EN013939
    CK05K010  C2005 07 02.92906 16 45 21.31 +59 02 51.2          17.0 N EN013939
    CK05K010  C2005 07 02.99227 16 45 17.42 +59 01 51.5          17.0 N EN013213
    CK05K010  C2005 07 02.99311 16 45 17.40 +59 01 50.3          17.0 N EN013213
    CK05K010  C2005 07 02.99499 16 45 17.28 +59 01 48.2          17.0 N EN013213

Observer details:
048 Hradec Kralove.  Observer M. Lehky.  0.40-m f/5 reflector + CCD.
157 Frasso Sabino.  Observers R. Haver, F. Anzellini, R. Gorelli.  Measurer
    R. Haver.  0.20-m f/6.5 Schmidt-Cassegrain + CCD.
213 Observatorio Montcabre.  Observer R. Naves.  Measurer M. Campas.  0.30-m
    f/10 Schmidt-Cassegrain + CCD.
372 Geisei.  Observer T. Seki.  0.60-m f/3.5 reflector.
673 Table Mountain Observatory, Wrightwood.  Observers J. Young, G. Wallace,
    J. Mattison.  0.6-m reflector + CCD.
939 Observatorio Rodeno.  Observer J. Castellano.  0.20-m f/10
    Schmidt-Cassegrain + CCD.
J78 Murcia.  Observer J. Sanchez.  0.25-m f/8.9 Schmidt-Cassegrain + CCD.
J97 Alginet.  Observer T. Climent G.  0.25-m f/3.3 Schmidt-Cassegrain + CCD.

Orbital elements:
    C/2005 K1 (Skiff)
T 2005 Nov. 20.8174 TT                                  MPC
q   3.693553             (2000.0)            P               Q
                   Peri.  134.8446      +0.0538739      +0.3432179
                   Node   106.3402      -0.9353341      -0.3114695
e   1.0            Incl.   77.7361      +0.3496394      -0.8861085
From 239 observations 2005 May 17-July 2.

Brian G. Marsden             (C) Copyright 2005 MPC           M.P.E.C. 2005-N13

Read MPEC 2005-N12 Read MPEC 2005-N14


Our Web policy. Index to the CBAT/MPC/ICQ pages.


Valid HTML 4.01!